{"data":{"norad_id":49397,"intl_designator":"2021-102C","name":"RAISE 2","alt_names":[],"object_type":"PAYLOAD","status":"ACTIVE","operator":null,"country":"JPN","launch_date":"2021-11-09","launch_site_code":"KSCUT","launch_vehicle":null,"mission":null,"orbit_class":"UNKNOWN","rcs_meters":null,"size_class":null,"mass_kg":null,"dimensions":null,"purposes":[],"wikipedia_slug":null,"has_3d_model":false,"image_url":null,"decayed_at":null,"tle_current":{"epoch":"2026-09-20T18:42:12.848832Z","epoch_age_seconds":83133,"freshness":"FRESH","line1":"1 49397U 21102C   26263.77931538  .00003871  00000+0  17020-3 0  9991","line2":"2 49397  97.3201 294.2974 0007043 317.2644  42.8044 15.22450995267979","mean_motion":15.22450995,"eccentricity":0.0007043,"inclination_deg":97.3201,"raan_deg":294.2974,"arg_perigee_deg":317.2644,"mean_anomaly_deg":42.8044,"bstar":0.0001702,"rev_number":26797,"period_min":94.584325192024,"perigee_km":493.60710232853,"apogee_km":503.29346317502,"semimajor_km":6876.5872827518,"source":"CELESTRAK","updated_at":"2026-09-21T09:00:08.078629Z"}}}